EW9968 Weather Reports


Display with metric or nautical units.
time (UTC)temp
F
wind
direction
speed
MPH
gust
MPH
rain 1hr
in
rain 24hr
in
rain mn
in
humidity
%
barometer
mb
20260506073036 0 0.0 0.0 0.00 0.00 0.00 1009.1
20260506071534 0 0.0 0.0 0.00 0.00 0.00 1008.9
20260506061518 0 0.0 0.0 0.00 0.00 0.00 1008.7
20260506050108 0 0.0 0.0 0.00 0.00 0.00 1009.0
20260506044547 0 212 0.0 0.0 0.00 0.00 0.00 1009.1
20260506043046 62 212 0.0 0.0 0.00 0.00 0.00 72 1009.2
20260506041544 62 196 0.0 0.0 0.00 0.00 0.00 71 1009.1
20260506040043 62 243 0.0 7.0 0.00 0.00 0.00 71 1009.1
20260506034543 62 215 0.0 0.0 0.00 0.00 0.00 71 1009.0
20260506033042 62 212 0.0 0.0 0.00 0.00 0.00 71 1008.9
20260506031541 63 228 0.0 0.0 0.00 0.00 0.00 69 1009.0
20260506030042 63 226 0.0 0.0 0.00 0.00 0.00 68 1009.1
20260506024548 64 234 0.0 0.0 0.00 0.00 0.00 67 1009.1
20260506023039 64 199 0.0 0.0 0.00 0.00 0.00 66 1009.1
20260506021539 65 203 0.0 0.0 0.00 0.00 0.00 65 1009.3
20260506020041 66 231 0.0 0.0 0.00 0.00 0.00 64 1009.2
20260506014538 66 103 0.0 0.0 0.00 0.00 0.00 63 1009.3
20260506013038 67 219 0.0 0.0 0.00 0.00 0.00 63 1008.8
20260506011600 67 215 0.0 2.0 0.00 0.00 0.00 62 1008.6
20260506010036 68 205 0.0 3.0 0.00 0.00 0.00 61 1008.5
20260506004547 69 238 0.0 0.0 0.00 0.00 0.00 58 1008.2
20260506003035 69 206 0.0 0.0 0.00 0.00 0.00 57 1007.9
20260506001536 70 219 0.0 1.0 0.00 0.00 0.00 56 1007.6
20260506000058 70 208 0.0 2.0 0.00 0.00 0.00 55 1007.4
20260505234542 71 283 0.0 1.0 0.00 0.00 0.00 53 1007.1
20260505233034 72 124 0.0 0.0 0.00 0.00 0.00 53 1006.8
20260505231533 73 213 0.0 5.0 0.00 0.00 0.00 52 1006.7
20260505230050 74 275 0.0 7.0 0.00 0.00 0.00 51 1006.4
20260505224538 75 190 0.0 15.0 0.00 0.00 0.00 50 1006.3
20260505223029 76 233 1.0 13.0 0.00 0.00 0.00 48 1005.8
20260505221529 77 221 2.0 10.0 0.00 0.00 0.00 47 1005.4
20260505220027 78 198 6.0 14.0 0.00 0.00 0.00 46 1005.2
20260505214530 78 239 2.0 14.0 0.00 0.00 0.00 44 1005.7
20260505213027 79 187 3.0 9.0 0.00 0.00 0.00 42 1005.3
20260505211529 80 191 0.0 5.0 0.00 0.00 0.00 41 1005.0
20260505210029 81 184 4.0 10.0 0.00 0.00 0.00 39 1004.7
20260505204523 82 238 4.0 12.0 0.00 0.00 0.00 36 1004.8
20260505203022 82 214 4.0 14.0 0.00 0.00 0.00 35 1004.6
20260505201520 83 141 1.0 7.0 0.00 0.00 0.00 39 1004.8
20260505200018 84 71 2.0 11.0 0.00 0.00 0.00 38 1004.9
20260505194516 84 150 3.0 9.0 0.00 0.00 0.00 38 1004.8
20260505193020 85 264 0.0 12.0 0.00 0.00 0.00 39 1005.0
20260505191513 83 217 4.0 13.0 0.00 0.00 0.00 39 1005.3
20260505190013 84 242 4.0 11.0 0.00 0.00 0.00 38 1005.5
20260505184515 85 98 4.0 9.0 0.00 0.00 0.00 38 1005.7
20260505183009 85 209 3.0 10.0 0.00 0.00 0.00 37 1005.9
20260505181504 84 145 2.0 8.0 0.00 0.00 0.00 38 1006.2
20260505180003 84 243 3.0 11.0 0.00 0.00 0.00 40 1006.4
20260505174501 84 153 4.0 12.0 0.00 0.00 0.00 39 1006.3
20260505173114 84 153 3.0 7.0 0.00 0.00 0.00 40 1006.6
20260505171623 85 212 1.0 6.0 0.00 0.00 0.00 41 1007.0
20260505170054 84 129 2.0 6.0 0.00 0.00 0.00 40 1007.0
20260505164555 82 204 1.0 5.0 0.00 0.00 0.00 43 1007.2
20260505163050 81 218 1.0 7.0 0.00 0.00 0.00 44 1007.5
20260505161551 80 141 2.0 6.0 0.00 0.00 0.00 44 1007.8
20260505153041 80 144 0.0 0.0 0.00 0.00 0.00 47 1008.6
20260505151538 78 270 0.0 1.0 0.00 0.00 0.00 47 1008.6
20260505124507 63 219 0.0 0.0 0.00 0.00 0.00 70 1009.1
20260505123005 62 219 0.0 0.0 0.00 0.00 0.00 69 1009.2
20260505121510 62 81 0.0 0.0 0.00 0.00 0.00 70 1009.1
20260505114556 57 216 0.0 0.0 0.00 0.00 0.00 79 1009.3
20260505113058 56 296 0.0 2.0 0.00 0.00 0.00 79 1009.1
20260505111554 55 191 0.0 8.0 0.00 0.00 0.00 80 1009.1
20260505101543 0 0.0 0.0 0.00 0.00 0.00 1009.2
20260505100043 0 0.0 0.0 0.00 0.00 0.00 1008.9
20260505094533 0 0.0 0.0 0.00 0.00 0.00 1009.0
20260505093030 0 0.0 0.0 0.00 0.00 0.00 1009.1
20260505091532 0 0.0 0.0 0.00 0.00 0.00 1009.1
20260505090020 0 0.0 0.0 0.00 0.00 0.00 1009.0
20260505084515 0 0.0 0.0 0.00 0.00 0.00 1009.2
20260505083009 0 0.0 0.0 0.00 0.00 0.00 1009.2
20260505081506 0 0.0 0.0 0.00 0.00 0.00 1009.4